Simultaneous Nadir Overpasses (SNOs) Predictions

Prediction of SNOs between NOAA-19 and TERRA Satellite Orbit:

Table of predicted SNOs for the next 14.0 days since TLE Epoch: 10/6/2013
Index Date (NOAA-19) Time (NOAA-19) Lat,Lon (NOAA-19) SZA (NOAA-19 ) Date (TERRA) Time (TERRA) Lat,Lon (TERRA) SZA (TERRA ) Distance(km) Time Diff (sec)
1 10/06/2013 10:58:00 69.83, 15.79 75.03 10/06/2013 10:58:21 69.83, 15.86 75.03 2.73 21
2 10/06/2013 11:48:54 -69.68,-176.72 105.12 10/06/2013 11:47:52 -69.66,-176.74 105.14 1.71 62
3 10/08/2013 15:42:13 69.82, -55.24 75.86 10/08/2013 15:42:36 69.83, -55.21 75.87 1.51 23
4 10/08/2013 16:33:08 -69.69, 112.22 104.26 10/08/2013 16:32:07 -69.66, 112.19 104.29 3.29 61
5 10/10/2013 20:26:26 69.82,-126.27 76.69 10/10/2013 20:26:51 69.82,-126.30 76.69 0.92 25
6 10/10/2013 21:17:22 -69.72, 41.14 103.40 10/10/2013 21:16:21 -69.71, 41.19 103.41 1.94 61
7 10/13/2013 01:10:39 69.83, 162.67 77.53 10/13/2013 01:11:05 69.85, 162.68 77.55 1.98 26
8 10/13/2013 02:01:35 -69.70, -29.87 102.59 10/13/2013 02:00:36 -69.69, -29.91 102.61 1.83 59
9 10/15/2013 05:54:52 69.86, 91.60 78.38 10/15/2013 05:55:19 69.87, 91.65 78.39 2.61 27
10 10/15/2013 06:45:48 -69.69,-100.90 101.77 10/15/2013 06:44:50 -69.71,-100.94 101.76 2.81 58
11 10/17/2013 10:39:04 69.84, 20.59 79.17 10/17/2013 10:39:34 69.83, 20.53 79.16 2.72 30
12 10/17/2013 11:30:02 -69.74,-172.02 100.91 10/17/2013 11:29:04 -69.73,-171.98 100.94 2.52 58
13 10/19/2013 15:23:17 69.88, -50.51
